This is the latest recevied weather packets stored in our database for station/object K7FRY. If no packets are shown the sender has not sent any weather packets the latest 10 day(s).
| Time | Temp. | Humidity | Pressure | Rain* | Wind** | Luminosity | Snow |
|---|---|---|---|---|---|---|---|
| 1777541153 | 17.78° C | 24% | 1014.1 hPa | 0 mm | - | 0 W/m² | - |
| 1777540850 | 18.33° C | 24% | 1014.1 hPa | 0 mm | - | 0 W/m² | - |
| 1777540548 | 18.33° C | 23% | 1014.4 hPa | 0 mm | - | 0 W/m² | - |
| 1777540243 | 18.33° C | 23% | 1014.2 hPa | 0 mm | - | 0 W/m² | - |
| 1777539939 | 18.89° C | 23% | 1013.9 hPa | 0 mm | - | 0 W/m² | - |
| 1777539636 | 18.89° C | 23% | 1013.8 hPa | 0 mm | - | 0 W/m² | - |
| 1777539332 | 18.33° C | 23% | 1013.8 hPa | 0 mm | - | 0 W/m² | - |
| 1777539029 | 18.33° C | 23% | 1014 hPa | 0 mm | - | 0 W/m² | - |
| 1777538725 | 18.89° C | 23% | 1014.2 hPa | 0 mm | - | 0 W/m² | - |
| 1777538420 | 19.44° C | 22% | 1014.6 hPa | 0 mm | - | 0 W/m² | - |
| 1777538116 | 19.44° C | 22% | 1014.7 hPa | 0 mm | - | 0 W/m² | - |
| 1777537811 | 19.44° C | 22% | 1014.5 hPa | 0 mm | - | 0 W/m² | - |
| 1777537509 | 18.89° C | 22% | 1014.5 hPa | 0 mm | - | 0 W/m² | - |
| 1777537204 | 19.44° C | 22% | 1014.7 hPa | 0 mm | - | 0 W/m² | - |
| 1777536900 | 20.56° C | 21% | 1014.9 hPa | 0 mm | - | 0 W/m² | - |
| 1777536598 | 21.11° C | 21% | 1014.7 hPa | 0 mm | - | 0 W/m² | - |
| 1777536294 | 21.11° C | 21% | 1014.6 hPa | 0 mm | - | 0 W/m² | - |
| 1777535990 | 21.67° C | 20% | 1014.9 hPa | 0 mm | - | 0 W/m² | - |
| 1777535686 | 21.67° C | 20% | 1014.5 hPa | 0 mm | - | 0 W/m² | - |
| 1777535383 | 21.67° C | 20% | 1014.8 hPa | 0 mm | - | 0 W/m² | - |
| 1777535081 | 21.67° C | 20% | 1015.1 hPa | 0 mm | - | 0 W/m² | - |
| 1777534778 | 21.67° C | 20% | 1015 hPa | 0 mm | - | 0 W/m² | - |
| 1777534474 | 21.67° C | 19% | 1015.3 hPa | 0 mm | - | 0 W/m² | - |
| 1777534172 | 21.67° C | 19% | 1014.8 hPa | 0 mm | - | 0 W/m² | - |
| 1777533869 | 22.22° C | 19% | 1014.7 hPa | 0 mm | - | 0 W/m² | - |
* Rain latest hour (hover to see other rain measurements)
** Current wind speed in m/s (hover to see current wind gust speed)